User: anonymous   Login
Location: General Nathan Twining Observatory
(34.5931°N, 106.8201°W)
Time: 03:23:41
(UTC-06:00)
Language:

Cosmos 1937 Rocket - Orbit

View from above orbital plane
View from above orbital plane
View from above satellite
View from above satellite

Ground track
Ground track

The orbit data is extracted from the following two-line orbital elements,

1 19039U 88029B   18289.93670443 +.00000153 +00000-0 +58618-4 0  9994
2 19039 074.0464 123.0573 0023644 177.8829 182.2430 14.38414996600556
Epoch (UTC): 16 October 2018 22:28:51
Eccentricity: 0.0023644
inclination: 74.0464°
perigee height: 747 km
apogee height: 780 km
right ascension of ascending node: 123.0573°
argument of perigee: 177.8829°
revolutions per day: 14.38414996
mean anomaly at epoch: 182.2430°
orbit number at epoch: 60055

The dashed part of the orbit path shows where the satellite is in the earth's shadow,  

DLR